sat.trackr.live / text

‹ back to catalog

STARLINK-34097

NORAD 63903 · 2025-095P

PAYLOAD ACTIVE UNKNOWN

§ Identity

Operator
Country
US
Launch date
2025-05-10
Launch site
AFETR
Launch vehicle
Mass (kg)
RCS (m²)

Purposes: comms

External: N2YO · Heavens-Above · Gunter

§ Orbital elements

Epoch: 2026-05-25T03:43:24.134016Z

Period
94.27 min
Inclination
43.0012°
Eccentricity
0.0001393
Mean motion
15.27587673 rev/d
Perigee alt
482.1 km
Apogee alt
484.0 km
Semi-major
6,861.2 km
B*
4.7165e-4
RAAN
104.2531°
Arg perigee
273.9295°
Mean anomaly
86.1398°
Rev number
5,947

§ Raw data

STARLINK-340971 63903U 25095P   26145.15514044  .00012742  00000+0  47165-3 0  99952 63903  43.0012 104.2531 0001393 273.9295  86.1398 15.27587673 59473

JSON: /api/v1/satellites/63903 · /tle

For live sub-satellite position, see the globe view (requires WebGL).

§ Visibility from observer

Set your observer location to see the next 7 days of passes ≥ 10°. The values pass through the URL so the page stays shareable.

No JS? Fill the form by hand. The geolocation button needs JavaScript.